Aérodrome :
LOGIN :

S'inscrire | Disclaimer

   EN    FR    IT 

 










Légende :    VFR   VFR Marginal   IFR   IFR Intensif   IFR Très Intensif
Visi : 
Plafond : 
>= 8 km
>= 3000ft
5 à 8 km
1000 à 3000 ft
1500m à 5 km
500 à 1000 ft
800 à 1500m
200 à 500 ft
< 800m
< 200 ft
Symboles :   Orages  Brouillard  Fortes neiges  Fortes précipitations  Vent > 20 kt
SIGMETs :   Divers  Orages  Givrage  Turbulence  Onde Orograph.  Cendres Volcan.







- Altitude de l'aérodrome : 250 ft


LERI - Alcantarilla

DERNIER METAR :
  • 270800Z 23004KT 170V270 CAVOK 18/14 Q1014 NOSIG

METARs EXPIRÉS :
  • 270700Z VRB02KT CAVOK 15/13 Q1014 NOSIG
  • 270600Z VRB01KT CAVOK 13/12 Q1014 NOSIG

TAF TAF LERI
Valide du 27 à 06h jusqu'au 27 à 15h UTC


270500Z 2706/2715 VRB02KT CAVOK
TEMPO 2712/2715 4000 SHRA FEW030CB
PROB30
TEMPO 2712/2715 2000 TSRA SCT030CB
Pas de NOTAMs connus pour ce terrain.



MET'MAP, la Météo Aéronautique d'un coup d'oeil ! - Copyright ORBIFLY Décembre 2007 - Disclaimer

ORBIFLY MET'MAP TEAM :

Programmation & Développement : Alexandra Zaïnal
Conception & Développement : Baudouin d'Aumeries
Co-Programmation & Développement : Marc-Olivier Méhu
Soutien technique & logistique : Manuel Goepfert

Contact : metmap@orbifly.com




SOURCES & CREDITS :

   NOAA